TimeCDT,TemperatureF,Dew PointF,Humidity,Sea Level PressureIn,VisibilityMPH,Wind Direction,Wind SpeedMPH,Gust SpeedMPH,PrecipitationIn,Events,Conditions,WindDirDegrees,DateUTC
12:04 AM,69.8,68.0,94,29.95,10.0,SW,15.0,-,N/A,Rain-Thunderstorm,Light Rain,220,2013-07-21 05:04:00
12:19 AM,69.8,68.0,94,29.95,9.0,SSW,13.8,-,N/A,Rain,Light Rain,200,2013-07-21 05:19:00
12:53 AM,70.0,68.0,93,29.90,8.0,SSW,10.4,-,N/A,Rain,Light Rain,210,2013-07-21 05:53:00
1:53 AM,70.0,68.0,93,29.89,10.0,SSW,8.1,-,N/A,Rain,Light Rain,210,2013-07-21 06:53:00
2:53 AM,70.0,68.0,93,29.91,10.0,NNW,9.2,-,N/A,,Scattered Clouds,330,2013-07-21 07:53:00
3:53 AM,70.0,68.0,93,29.91,10.0,Calm,Calm,-,N/A,,Partly Cloudy,0,2013-07-21 08:53:00
4:53 AM,70.0,68.0,93,29.90,10.0,Calm,Calm,-,N/A,Rain,Light Rain,0,2013-07-21 09:53:00
5:53 AM,70.0,68.0,93,29.91,9.0,South,3.5,-,N/A,Rain,Light Rain,180,2013-07-21 10:53:00
6:53 AM,69.1,68.0,96,29.90,10.0,South,3.5,-,N/A,Rain,Light Rain,170,2013-07-21 11:53:00
7:53 AM,69.1,66.9,93,29.91,10.0,SE,8.1,-,N/A,,Partly Cloudy,140,2013-07-21 12:53:00
8:53 AM,71.1,69.1,93,29.93,10.0,SSW,3.5,-,N/A,,Scattered Clouds,210,2013-07-21 13:53:00
9:53 AM,71.1,70.0,96,29.94,10.0,SW,3.5,-,N/A,Rain,Light Rain,220,2013-07-21 14:53:00
10:53 AM,71.1,70.0,96,29.95,4.0,Calm,Calm,-,N/A,Rain,Light Rain,0,2013-07-21 15:53:00
11:53 AM,73.0,71.1,93,29.94,9.0,ESE,5.8,-,N/A,Rain,Light Rain,110,2013-07-21 16:53:00
12:15 PM,73.4,69.8,88,29.97,10.0,SSE,5.8,-,N/A,Rain,Light Rain,150,2013-07-21 17:15:00
12:53 PM,73.9,70.0,87,29.93,10.0,ESE,5.8,-,N/A,Rain,Light Rain,110,2013-07-21 17:53:00
1:30 PM,73.4,71.6,94,29.94,9.0,SE,5.8,-,N/A,,Overcast,140,2013-07-21 18:30:00
1:53 PM,75.0,71.1,87,29.90,10.0,South,5.8,-,N/A,,Overcast,180,2013-07-21 18:53:00
2:13 PM,77.0,71.6,83,29.91,10.0,South,6.9,-,N/A,,Overcast,190,2013-07-21 19:13:00
2:24 PM,77.0,71.6,83,29.91,10.0,South,10.4,-,N/A,,Overcast,190,2013-07-21 19:24:00
2:53 PM,80.1,71.1,74,29.85,10.0,South,13.8,-,N/A,,Mostly Cloudy,180,2013-07-21 19:53:00
3:22 PM,80.6,71.6,74,29.88,10.0,SSW,12.7,-,N/A,,Mostly Cloudy,210,2013-07-21 20:22:00
3:53 PM,81.0,71.1,72,29.84,10.0,SW,9.2,-,N/A,,Mostly Cloudy,220,2013-07-21 20:53:00
4:53 PM,81.0,71.1,72,29.84,10.0,SSW,12.7,-,N/A,,Overcast,210,2013-07-21 21:53:00
5:53 PM,82.0,71.1,69,29.84,10.0,SW,9.2,-,N/A,,Overcast,230,2013-07-21 22:53:00
7:53 PM,80.1,71.1,74,29.83,10.0,SSW,5.8,-,N/A,,Mostly Cloudy,210,2013-07-22 00:53:00
8:53 PM,78.1,72.0,81,29.84,10.0,Calm,Calm,-,N/A,,Scattered Clouds,0,2013-07-22 01:53:00
9:53 PM,75.0,72.0,90,29.86,10.0,Calm,Calm,-,0.00,,Scattered Clouds,0,2013-07-22 02:53:00
10:53 PM,73.9,72.0,93,29.86,10.0,Calm,Calm,-,N/A,,Scattered Clouds,0,2013-07-22 03:53:00
11:53 PM,75.9,72.0,87,29.86,10.0,SSE,3.5,-,N/A,,Mostly Cloudy,160,2013-07-22 04:53:00